Whidbey Island, WA

6:05 AM PDT on August 23, 2017 (GMT -0700)
Whidbey Island Naval Air Station

Weather History for KNUW - May, 2013

Change the Weather History Date:

Thursday, May 9, 2013

  Actual Average Record
Temperature  
Mean Temperature 50 °F -  
Max Temperature 54 °F 55 °F 66 °F (2015)
Min Temperature 46 °F 42 °F 37 °F (2002)
Degree Days  
Heating Degree Days 16    
Moisture  
Dew Point 46 °F    
Average Humidity 88    
Maximum Humidity 93    
Minimum Humidity 80    
Precipitation  
Precipitation 0.00 in - - ()
Sea Level Pressure  
Sea Level Pressure 30.21 in    
Wind  
Wind Speed 6 mph (WSW)    
Max Wind Speed 10 mph    
Max Gust Speed -    
Visibility 8 miles    
Events      
Averages and records for this station are not official NWS values.
T = Trace of Precipitation, MM = Missing Value Source: NWS Daily Summary

Daily Weather History Graph

Daily Weather History Graph

Search for Another Location

Airport or City:

Trip Planner

Search our weather history database for the weather conditions in past years. The results will help you decide how hot, cold, wet, or windy it might be!

Date:

Astronomy

May. 09, 2013 Rise Set
Actual Time 5:38 AM PDT 8:36 PM PDT
Civil Twilight 5:02 AM PDT 9:13 PM PDT
Nautical Twilight 4:15 AM PDT 10:00 PM PDT
Astronomical Twilight 3:18 AM PDT 10:58 PM PDT
Moon 5:28 AM PDT (5/9) 8:36 PM PDT (5/9)
Length of Visible Light 16h 11m
Length of Day
14h 58m
Waning Crescent, 0% of the Moon is Illuminated
May 9
Waning Crescent
May 9
New
May 17
First Quarter
May 24
Full
May 31
Last Quarter

Hourly Weather History & Observations

Time (PDT) Temp. Windchill Dew Point Humidity Pressure Visibility Wind Dir Wind Speed Gust Speed Precip Events Conditions
12:56 AM 48.0 °F - 45.0 °F 89% 30.19 in 10.0 mi SW 3.5 mph - N/A   Clear
1:56 AM 46.9 °F - 44.1 °F 90% 30.20 in 10.0 mi SW 3.5 mph - N/A   Clear
2:26 AM 46.4 °F 44.3 °F 44.6 °F 93% 30.19 in 6.0 mi SW 4.6 mph - N/A   Mostly Cloudy
2:56 AM 48.0 °F - 46.0 °F 93% 30.22 in 6.0 mi SW 5.8 mph - N/A   Mostly Cloudy
3:56 AM 46.9 °F - 45.0 °F 93% 30.22 in 6.0 mi WSW 8.1 mph - N/A   Mostly Cloudy
4:56 AM 48.0 °F - 46.0 °F 93% 30.22 in 4.0 mi WSW 8.1 mph - N/A   Overcast
5:56 AM 48.0 °F - 46.0 °F 93% 30.24 in 4.0 mi WSW 8.1 mph - N/A   Overcast
6:56 AM 48.0 °F - 46.0 °F 93% 30.25 in 5.0 mi West 9.2 mph - N/A   Overcast
7:56 AM 48.0 °F - 46.0 °F 93% 30.26 in 5.0 mi WSW 8.1 mph - N/A   Overcast
8:56 AM 48.9 °F - 46.9 °F 93% 30.25 in 6.0 mi WSW 9.2 mph - N/A   Overcast
9:56 AM 48.9 °F - 46.9 °F 93% 30.25 in 5.0 mi WSW 10.4 mph - N/A   Overcast
10:56 AM 50.0 °F - 46.9 °F 89% 30.25 in 7.0 mi West 6.9 mph - N/A   Overcast
11:56 AM 50.0 °F - 46.9 °F 89% 30.25 in 8.0 mi West 8.1 mph - N/A   Overcast
12:56 PM 51.1 °F - 46.9 °F 86% 30.24 in 9.0 mi West 5.8 mph - N/A   Mostly Cloudy
1:56 PM 51.1 °F - 46.9 °F 86% 30.24 in 3.0 mi West 5.8 mph - N/A   Mostly Cloudy
2:56 PM 51.1 °F - 46.9 °F 86% 30.22 in 3.0 mi West 5.8 mph - N/A   Mostly Cloudy
3:06 PM 51.8 °F - 48.2 °F 88% 30.21 in 9.0 mi WNW 4.6 mph - N/A   Scattered Clouds
3:56 PM 53.1 °F - 48.0 °F 83% 30.20 in 9.0 mi WSW 6.9 mph - N/A   Scattered Clouds
4:56 PM 53.1 °F - 48.0 °F 83% 30.19 in 10.0 mi West 9.2 mph - N/A   Partly Cloudy
5:56 PM 53.1 °F - 48.0 °F 83% 30.18 in 10.0 mi West 3.5 mph - N/A   Clear
6:56 PM 53.1 °F - 46.9 °F 80% 30.17 in 10.0 mi WSW 3.5 mph - N/A   Clear
7:56 PM 51.1 °F - 46.0 °F 83% 30.17 in 9.0 mi WSW 3.5 mph - N/A   Clear
8:56 PM 50.0 °F - 45.0 °F 83% 30.18 in 10.0 mi SW 3.5 mph - N/A   Clear
9:56 PM 50.0 °F - 45.0 °F 83% 30.19 in 10.0 mi SSW 3.5 mph - N/A   Clear
10:56 PM 48.9 °F - 45.0 °F 86% 30.19 in 10.0 mi SW 4.6 mph - N/A   Clear
11:56 PM 46.9 °F - 44.1 °F 90% 30.20 in 10.0 mi South 4.6 mph - N/A   Clear